Regional Weather Roundup
Issued by NWS San Diego, CA

Home | Current Version | Previous Version | Text Only | Print | Product List | Glossary On
Versions: 1 2 3 4 5 6 7 8 9 10 11 12 13 14 15 16 17 18 19 20 21 22 23 24 25 26 27 28 29 30 31 32 33 34 35 36 37 38 39 40 41 42 43 44 45 46 47 48 49 50
000
ASUS46 KSGX 240610
RWRSGX

SAN DIEGO HOURLY WEATHER ROUNDUP
NATIONAL WEATHER SERVICE SAN DIEGO CA
1100 PM PDT WED APR 23 2014

NOTE: "FAIR" INDICATES FEW OR NO CLOUDS BELOW 12,000 FEET WITH NO
SIGNIFICANT WEATHER AND/OR OBSTRUCTIONS TO VISIBILITY.

CAZ042-043-060-061-PZZ750-775-240700-

GREATER SAN DIEGO AREA

CITY           SKY/WX    TMP DP  RH WIND       PRES   REMARKS
LINDBERGH FLD  MOCLDY    63  52  67 CALM      29.97F
NATIONAL CITY    N/A     62  54  75 CALM      29.97F
CHULA VISTA      N/A     59  52  79 CALM      29.90F
IMPERIAL BEACH CLEAR     56  52  86 E6        29.96F
BROWN FIELD    CLEAR     56  51  84 E3        29.96F
MIRAMAR MCAS   CLEAR     56  49  77 E6        29.96F
MONTGOMERY FLD CLEAR     59  53  80 E3        29.96F

$$

NORTH SAN DIEGO COUNTY

CITY           SKY/WX    TMP DP  RH WIND       PRES   REMARKS
CAMP PENDLETON PTCLDY    55  47  74 CALM      29.96S
RED BEACH      FAIR      58  47  66 NE7       29.96R
OCEANSIDE AP   CLEAR     53  48  83 CALM      29.94F
VISTA            N/A     56  51  81 CALM      29.94S
CARLSBAD       CLEAR     60  51  72 SE3       29.95
DEL MAR          N/A     58  54  88 CALM      29.97F
FALLBROOK        N/A     56  55  94 CALM      29.95S
ESCONDIDO        N/A     59  51  74 CALM      29.98S
SAN MARCOS       N/A     58  52  80 CALM      29.95S
POWAY            N/A     55  50  81 CALM      29.98F
R. PENASQUITOS   N/A     58  53  84 CALM      29.97F

$$

EAST SAN DIEGO COUNTY

CITY           SKY/WX    TMP DP  RH WIND       PRES   REMARKS
RAMONA         CLEAR     50  44  80 E3        29.98R
GILLESPIE FLD  FAIR      59  52  77 CALM      29.98F
LA MESA          N/A     60  55  83 CALM      29.91F
JAMUL            N/A     54  47  77 CALM      29.96F
DESCANSO N       N/A     46  40  77 CALM      29.87R
MT. LAGUNA OBS   N/A     51  29  42 CALM      29.65
CAMPO            N/A     45  40  82 N5        29.97R

$$

ORANGE COUNTY AND THE LOS ANGELES BASIN

CITY           SKY/WX    TMP DP  RH WIND       PRES   REMARKS
JOHN WAYNE AP  PTCLDY    63  51  65 SW3       29.94S
LAGUNA BEACH     N/A     55  42  61 CALM      29.93S
LAKE FOREST FR   N/A     58  43  58 CALM      29.85F
SANTA ANA        N/A     60  49  66 CALM      29.90S
HUNTINGTON BCH   N/A     59  55  85 W1        29.95S
LOS ALAMITOS   FAIR      59  53  82 SE2       29.94S
FULLERTON      CLEAR     62  51  67 CALM      29.94S
LONG BEACH     CLEAR     62  44  51 CALM      29.94S
L.A. AP        CLEAR     61  52  72 SW6       29.95S
L.A. DOWNTOWN  CLEAR     60  50  69 CALM      29.94S

$$

THE INLAND EMPIRE

CITY           SKY/WX    TMP DP  RH WIND       PRES   REMARKS
CORONA         CLEAR     55  41  59 CALM        N/A
CHINO          CLEAR     57  44  62 CALM      29.96S
ONTARIO        PTCLDY    62  37  39 W3        29.95S
RIVERSIDE AP   CLEAR     62  40  44 CALM      29.95S
RIV CYN CREST    N/A     61  51  67 CALM      29.93S
MORENO VALLEY    N/A     57  46  67 CALM      28.06S
MARCH ARB      CLEAR     58  41  53 SW2       29.96S
HORSETHIEF CYN   N/A     56  41  57 S2        29.96S
PERRIS           N/A     59  45  59 CALM        N/A
MENIFEE          N/A     60  53  79 CALM      30.02S
HEMET EAST       N/A     57  44  61 CALM      29.95S
FRENCH VALLEY  NOT AVBL
TEMECULA         N/A     58  52  81 SE2       29.93F

$$

SAN BERNARDINO AND RIVERSIDE COUNTY MOUNTAINS

CITY           SKY/WX    TMP DP  RH WIND       PRES   REMARKS
BIG BEAR AP    CLEAR     32  12  43 CALM      30.12S
BIG BEAR SHEA    N/A     31  10  41 CALM      30.11R
ANGELUS OAKS     N/A     44  29  55 MISG      29.92R
PINE COVE        N/A     48  31  52 CALM      29.98S

$$

SOUTHERN DESERT INCLUDING THE COACHELLA VALLEY

CITY           SKY/WX    TMP DP  RH WIND       PRES   REMARKS
PALM SPRINGS   CLEAR     74  44  34 NW13      29.89R
THOUSAND PALMS   N/A     73  44  35 N12       29.85R
PALM DESERT      N/A     73  46  38 CALM      31.59S
THERMAL        CLEAR     73  43  33 N9        29.84R
BLYTHE         CLEAR     73  13  10 W5        29.85R
IMPERIAL AP    CLEAR     68  26  20 SW3       29.84R
EL CENTRO NAS  CLEAR     71  36  27 SW7       29.84R
YUMA AZ        CLEAR     71  31  22 W6        29.85R

$$

UPPER DESERT

CITY           SKY/WX    TMP DP  RH WIND       PRES   REMARKS
VICTORVILLE AP CLEAR     54  21  28 CALM      30.02R
HESPERIA         N/A     53  26  35 CALM      30.12R
APPLE VALLEY     N/A     56  22  26 CALM      30.10R
GRAY BUTTE AP  NOT AVBL
PALMDALE       CLEAR     53  25  33 W6        30.02S
LANCASTER      CLEAR     53  27  36 W6        30.01S
EDWARDS AFB    MOCLDY    53  27  36 S7        29.98S
DAGGETT        CLEAR     64  27  24 W10       29.97R
29 PALMS N     CLEAR     63  15  15 W9        30.01R
NEEDLES        CLEAR     72  10   9 NW8       29.87S

$$

REGIONAL REPORTS

CITY           SKY/WX    TMP DP  RH WIND       PRES   REMARKS
SANTA BARBARA  CLEAR     66  27  23 N8        29.92R
SANDBERG       PTCLDY    48  26  42 N18G26    30.07S
MT. WILSON       N/A     50  34  53 E7          N/A
LAS VEGAS NV   MOCLDY    69  16  13 SW9       29.90R
PHOENIX AZ     PTCLDY    74  13   9 W5        29.84R
TIJUANA        CLEAR     57  52  82 CALM      29.99
ENSENADA NW      N/A     60  32  35 N2        29.94S

$$

OFFSHORE ISLANDS

CITY           SKY/WX    TMP DP  RH WIND       PRES   REMARKS
CATALINA ARPT  CLEAR     64  18  17 CALM      29.98S
SAN NICOLAS IS CLEAR    N/A N/A N/A W22       29.95S

$$

MARINE AND OFFSHORE BUOY REPORTS

STATION/POSITION SKY/WX   TEMP    WIND        PRES    SWELL
                          AIR SEA DIR/SP/G            HT/PER/DIR
                          (F)     (DEG/KT/KT) (MB)    (FT/S/D)
S CLEMENTE BASIN           60 63  300/ 10/ 12 1014.6R   7/310/12
SAN NICOLAS IS.               57                N/A     7/290/12
SO. S. ROSA ISLA           55 55  320/ 23/ 29 1014.6R   7/ 9
W. S. BARBARA CH           54 54  320/ 25/ 31 1014.5F   5/310/13
S. MONICA BASIN            60 61   70/  6/  6 1013.4R   5/270/ 8
S PEDRO CHANNEL               62                N/A     2/260/12
DANA POINT                    63                N/A     2/270/11
CMP PENDLETON NS              63                N/A     2/240/12
OCEANSIDE OFFSHR              63                N/A     2/190/15
TORREY PINES OTR              63                N/A     3/270/13
LA JOLLA 1                 61 63  100/  3/  4 1014.4F
MISSION BAY BUOY              63                N/A     3/270/13
SAN DIEGO BAY                 67              1014.8S
POINT LOMA SOUTH              64                N/A     3/270/13

$$




USA.gov is the U.S. government's official web portal to all federal, state and local government web resources and services.